Location: Plainartige
(45.6866°N, 1.7993°E)
Time: 05:20:36
(UTC+00:00)

Vanguard 1 - Pass Details

Date: 26 May 2022
Orbit: 649 x 3833 km, 34.2° (Epoch: 06 July)

Event Time Altitude Azimuth Distance (km) Brightness Sun altitude
Exits shadow 00:33:31 30° 190° (S) 3,775 12.4 -22.5°
Maximum altitude 00:40:05 41° 148° (SSE) 3,801 12.6 -22.3°
Drops below altitude 10° 00:59:15 10° 88° (E) 6,850 14.6 -21.4°
Sets 01:05:20 0° 83° (E) 7,976 15.1 -21.0°
